Zurück zum Katalog

COSMOS 2413

GLONASS

AktivNavigationMEO
NORAD 28508·PAYLOAD·🇷🇺 Russia

Gestartet Dec 26, 2004 von Baikonur Cosmodrome

Loading…

Nächste Überflüge (nächste 24 Stunden)

TLE

AktuellSource: Space-Track

Epoche: Sep 13, 2026, 11:05 UTC

1 28508U 04053A   26256.46187682 -.00000030  00000-0  00000-0 0  9992
2 28508  64.2755  57.1375 0005501 231.6057 135.6711  2.13103485169015

Verfolge COSMOS 2413 in Echtzeit mit AllMySat

Download on the App Store